Tracking 30995 objects as of 5-Jul-2025
HD Live streaming from Space Station
objects crossing your sky now

DELTA 2 R/B

Track DELTA 2 R/B now!
10-day predictions


NORAD ID: 33106
Int'l Code: 2008-032B
Perigee: 2,159.3 km
Apogee: 4,375.9 km
Inclination: 65.2 °
Period: 157.0 minutes
Semi major axis: 9638 km
RCS: 10.82 m2 (large)
Launch date: June 20, 2008
Source: United States (US)
Launch site: AIR FORCE WESTERN TEST RANGE (AFWTR)

Note: This is a ROCKET BODY
Your satellite tracking list
Your tracking list is empty




NASA's NSSDC Master Catalog

Two Line Element Set (TLE):
1 33106U 08032B   25185.73965122 -.00000002  00000-0  24554-2 0  9997
2 33106  65.2440 301.1827 1149893 278.7787 248.1607  9.17449132570885
Source of the keplerian elements: AFSPC